1277510427487,92.5788
1277510487487,92.6533
1277510547487,92.5122
1277510607487,92.6754
1277510667487,92.4844
1277510727487,92.3987
1277510787487,92.4465
1277510847487,92.5887
1277510907487,92.7756
1277510967487,92.8919
1277511027487,92.6024
1277511087487,92.4822
1277511147487,92.7640
1277511207487,92.5641
1277511267487,92.6678
1277511327487,92.3787
1277511387487,92.7755
1277511447487,92.5732
1277511507487,92.5615
1277511567487,92.5172
1277511627487,92.4958
1277511687487,92.5404
1277511747487,92.7594
1277511807487,92.6526
1277511867487,92.4189
1277511927487,92.4663
1277511987487,92.3691
1277512047487,92.3014
1277512107487,92.5218
1277512167487,92.4941
1277512227487,92.3195
1277512287487,92.3519
1277512347487,92.2863
1277512407487,92.3652
1277512467487,92.3804
1277512527487,92.4315
1277512587487,92.2924
1277512647487,92.4261
1277512707487,92.3245
1277512767487,92.1195
1277512827487,92.5211
1277512887487,92.2899
1277512947487,92.2580
1277513007487,92.2545
1277513067487,92.2948
1277513127487,92.1085
1277513187487,92.2761
1277513247487,92.3148
1277513307487,92.1656
1277513367487,92.4019
1277513427487,92.5216
1277513487487,92.3813
1277513547487,92.2520
1277513607487,92.3464
1277513667487,92.1914
1277513727487,92.4835
1277513787487,92.4678
1277513847487,92.4530
1277513907487,92.3859
1277513967487,92.3782
1277514027496,92.3038
1277514087496,92.4794
1277514147496,92.5014
1277514207496,92.4341
1277514267496,92.3907
1277514327496,92.2566
1277514387496,92.4441
1277514447496,92.1997
1277514507496,92.5284
1277514567496,92.3685
1277514627496,92.3767
1277514687496,92.6236
1277514747496,92.4843
1277514807496,92.6499
1277514867496,92.4764
1277514927496,92.3634
1277514987496,92.5148
1277515047496,92.3288
1277515107496,92.6486
1277515167496,92.3450
1277515227496,92.3708
1277515287496,92.5617
1277515347496,92.4769
1277515407496,92.3121
1277515467496,92.5351
1277515527496,92.4159
1277515587496,92.4758
1277515647496,92.4551
1277515707496,92.5209
1277515767496,92.3930
1277515827496,92.3329
1277515887496,92.2874
1277515947496,92.3097
1277516007496,92.3015
1277516067496,92.3730
1277516127496,92.4244
1277516187496,92.3622
1277516247496,92.1439
1277516307496,92.3918
1277516367496,92.5840
1277516427496,92.2287
1277516487496,92.3570
1277516547496,92.3941
1277516607496,92.3756
1277516667496,92.2536
1277516727496,92.2740
1277516787496,92.1837
1277516847496,92.1291
1277516907496,92.1235
1277516967496,91.9556
1277517027496,92.1191
1277517087496,92.0058
1277517147496,92.0572
1277517207496,92.3714
1277517267496,92.2421
1277517327496,92.0355
1277517387496,91.9889
1277517447496,91.9827
1277517507496,92.1178
1277517567496,92.2798
1277517627505,92.1567
1277517687505,92.0866
1277517747505,92.0691
1277517807505,92.0023
1277517867505,92.0099
1277517927505,91.9386
1277517987505,92.0271
1277518047505,91.9123
1277518107505,92.1663
1277518167505,92.0886
1277518227505,92.1681
1277518287505,91.8198
1277518347505,92.1415
1277518407505,92.0635
1277518467505,92.0876
1277518527505,92.0412
1277518587505,92.1331
1277518647505,92.1581
1277518707505,92.0803
1277518767505,91.9944
1277518827505,92.2125
1277518887505,92.0337
1277518947505,92.2367
1277519007505,92.1466
1277519067505,92.1945
1277519127505,91.9746
1277519187505,92.4983
1277519247505,92.0752
1277519307505,92.1725
1277519367505,92.1792
1277519427505,92.1526
1277519487505,92.0662
1277519547505,92.1622
1277519607505,92.0833
1277519667505,92.0498
1277519727505,92.2568
1277519787505,92.1347
1277519847505,92.2125
1277519907505,92.1439
1277519967505,92.2400
1277520027505,92.0998
1277520087505,92.0451
1277520147505,92.2125
1277520207505,92.0951
1277520267505,92.3361
1277520327505,92.1158
1277520387505,92.1068
1277520447505,92.3025
1277520507505,92.2233
1277520567505,92.2662
1277520627505,92.4305
1277520687505,92.1873
1277520747505,92.1833
1277520807505,92.2509
1277520867505,91.9807
1277520927505,92.3469
1277520987505,92.3468
1277521047505,92.0163
1277521107505,92.1388
1277521167505,92.0269
1277521227514,92.1844
1277521287514,92.1157
1277521347514,92.3839
1277521407514,92.2687
1277521467514,92.1832
1277521527514,92.0568
1277521587514,92.4185
1277521647514,92.2270
1277521707514,92.0487
1277521767514,92.1988
1277521827514,92.0021
1277521887514,92.1001
1277521947514,91.9288
1277522007514,91.9789
1277522067514,92.0096
1277522127514,92.0962
1277522187514,92.2208
1277522247514,92.1804
1277522307514,91.8926
1277522367514,91.8000
1277522427514,92.0422
1277522487514,92.1102
1277522547514,92.1349
1277522607514,92.0992
1277522667514,91.9767
1277522727514,92.3333
1277522787514,92.0795
1277522847514,92.0121
1277522907514,92.1791
1277522967514,92.0278
1277523027514,91.9014
1277523087514,92.3130
1277523147514,92.0073
1277523207514,92.1542
1277523267514,92.1751
1277523327514,92.2106
1277523387514,91.8765
1277523447514,92.0330
1277523507514,92.1545
1277523567514,91.9259
1277523627514,92.0561
1277523687514,92.3843
1277523747514,92.0227
1277523807514,92.0951
1277523867514,92.1137
1277523927514,91.9876
1277523987514,92.1632
1277524047514,92.0285
1277524107514,92.2484
1277524167514,92.3408
1277524227514,92.2495
1277524287514,92.1509
1277524347514,92.1742
1277524407514,92.2012
1277524467514,92.0855
1277524527514,92.2691
1277524587514,92.1642
1277524647514,92.2164
1277524707514,92.2201
1277524767514,92.2276
1277524827523,92.2700
1277524887523,92.0391
1277524947523,92.1167
1277525007523,92.3942
1277525067523,92.1516
1277525127523,92.0933
1277525187523,92.0720
1277525247523,92.1176
1277525307523,92.1627
1277525367523,91.8105
1277525427523,92.1584
1277525487523,92.2211
1277525547523,92.1291
1277525607523,92.0614
1277525667523,92.1452
1277525727523,92.1606
1277525787523,92.2431
1277525847523,91.9691
1277525907523,91.9576
1277525967523,92.0205
1277526027523,92.1846
1277526087523,92.0944
1277526147523,92.1998
1277526207523,92.0294
1277526267523,92.1183
1277526327523,91.9867
1277526387523,92.2385
1277526447523,92.1840
1277526507523,92.1491
1277526567523,92.0183
1277526627523,92.0757
1277526687523,92.2952
1277526747523,92.0830
1277526807523,92.1508
1277526867523,91.9757
1277526927523,92.1207
1277526987523,92.0800
1277527047523,92.0815
1277527107523,92.2716
1277527167523,92.1519
1277527227523,92.2536
1277527287523,92.3766
1277527347523,92.3177
1277527407523,92.2117
1277527467523,92.2346
1277527527523,92.2609
1277527587523,92.1482
1277527647523,92.1667
1277527707523,92.3252
1277527767523,92.1002
1277527827523,92.1398
1277527887523,92.0608
1277527947523,92.2213
1277528007523,92.1861
1277528067523,92.3124
1277528127523,92.1145
1277528187523,91.9894
1277528247523,92.1787
1277528307523,92.2466
1277528367523,92.1043
1277528427532,92.1806
1277528487532,92.0237
1277528547532,92.0525
1277528607532,92.0923
1277528667532,92.1245
1277528727532,92.0833
1277528787532,92.2331
1277528847532,92.2569
1277528907532,92.3624
1277528967532,92.1250
1277529027532,92.1402
1277529087532,92.1585
1277529147532,92.2253
1277529207532,92.1273
1277529267532,92.1506
1277529327532,92.1280
1277529387532,92.2348
1277529447532,92.1494
1277529507532,92.2494
1277529567532,92.2603
1277529627532,92.0833
1277529687532,92.1871
1277529747532,92.2427
1277529807532,92.0029
1277529867532,92.2844
1277529927532,92.3265
1277529987532,92.2394
1277530047532,92.2283
1277530107532,91.9795
1277530167532,92.3712
1277530227532,92.2213
1277530287532,92.3731
1277530347532,92.1837
1277530407532,92.1907
1277530467532,92.2338
1277530527532,91.9854
1277530587532,92.3575
1277530647532,92.2910
1277530707532,92.2486
1277530767532,92.2830
1277530827532,92.4372
1277530887532,92.4026
1277530947532,92.3614
1277531007532,92.2061
1277531067532,92.2516
1277531127532,92.2179
1277531187532,92.1224
1277531247532,92.1032
1277531307532,92.1485
1277531367532,92.3098
1277531427532,92.2075
1277531487532,92.1670
1277531547532,92.3774
1277531607532,92.2264
1277531667532,92.1908
1277531727532,92.3322
1277531787532,92.2816
1277531847532,92.2144
1277531907532,92.3194
1277531967532,92.1478
1277532027540,91.9894
1277532087540,92.2445
1277532147540,92.3237
1277532207540,92.2725
1277532267540,92.3016
1277532327540,91.9618
1277532387540,92.2189
1277532447540,92.4435
1277532507540,92.2609
1277532567540,92.1994
1277532627540,92.2459
1277532687540,92.1310
1277532747540,92.2467
1277532807540,92.2400
1277532867540,91.9549
1277532927540,92.0761
1277532987540,92.0413
1277533047540,92.2235
1277533107540,92.0159
1277533167540,92.2779
1277533227540,92.1033
1277533287540,92.0504
1277533347540,91.9942
1277533407540,92.3287
1277533467540,92.3317
1277533527540,92.1574
1277533587540,92.0067
1277533647540,92.2090
1277533707540,92.1357
1277533767540,91.9694
1277533827540,92.1343
1277533887540,92.0492
1277533947540,92.1457
1277534007540,91.8823
1277534067540,91.9743
1277534127540,92.0260
1277534187540,92.1866
1277534247540,92.0574
1277534307540,92.0697
1277534367540,91.9805
1277534427540,92.0859
1277534487540,91.9994
1277534547540,92.0326
1277534607540,92.0896
1277534667540,91.9559
1277534727540,92.0756
1277534787540,92.1111
1277534847540,91.9514
1277534907540,92.0747
1277534967540,91.9069
1277535027540,92.1247
1277535087540,92.1298
1277535147540,92.3072
1277535207540,92.0898
1277535267540,92.0794
1277535327540,92.0611
1277535387540,91.8368
1277535447540,91.9099
1277535507540,92.0313
1277535567540,91.8932
1277535627548,91.9562
1277535687548,91.8427
1277535747548,91.7571
1277535807548,92.1065
1277535867548,92.0034
1277535927548,92.1017
1277535987548,91.9741
1277536047548,91.9426
1277536107548,91.7958
1277536167548,91.9356
1277536227548,91.7423
1277536287548,91.7690
1277536347548,91.8806
1277536407548,91.5215
1277536467548,91.7786
1277536527548,91.8734
1277536587548,91.9861
1277536647548,91.7577
1277536707548,91.8058
1277536767548,91.8023
1277536827548,91.7416
1277536887548,91.8481
1277536947548,91.8134
1277537007548,91.7411
1277537067548,91.7763
1277537127548,91.9426
1277537187548,91.8036
1277537247548,91.8363
1277537307548,91.8228
1277537367548,91.8712
1277537427548,91.8658
1277537487548,91.6899
1277537547548,91.8100
1277537607548,91.8619
1277537667548,92.0896
1277537727548,91.8383
1277537787548,92.0209
1277537847548,91.8444
1277537907548,91.6188
1277537967548,91.8761
1277538027548,91.8308
1277538087548,91.7818
1277538147548,91.6854
1277538207548,91.7468
1277538267548,91.7284
1277538327548,91.9242
1277538387548,92.0078
1277538447548,91.9284
1277538507548,91.8031
1277538567548,91.9448
1277538627548,91.8419
1277538687548,91.7225
1277538747548,92.0276
1277538807548,91.8637
1277538867548,92.0351
1277538927548,91.8842
1277538987548,91.8685
1277539047548,91.7328
1277539107548,91.9899
1277539167548,91.9306
1277539227557,91.8107
1277539287557,91.8887
1277539347557,91.8822
1277539407557,91.8445
1277539467557,92.0113
1277539527557,91.8838
1277539587557,91.8308
1277539647557,91.9356
1277539707557,91.7703
1277539767557,91.8300
1277539827557,91.9691
1277539887557,91.8339
1277539947557,91.8169
1277540007557,92.0034
1277540067557,92.0191
1277540127557,91.9675
1277540187557,92.1238
1277540247557,92.0424
1277540307557,92.1213
1277540367557,91.7161
1277540427557,92.1188
1277540487557,92.1444
1277540547557,91.9288
1277540607557,92.2740
1277540667557,91.9544
1277540727557,91.8544
1277540787557,91.8677
1277540847557,91.8496
1277540907557,91.7634
1277540967557,92.0073
1277541027557,91.7794
1277541087557,92.0332
1277541147557,91.9855
1277541207557,91.9697
1277541267557,91.8939
1277541327557,91.8783
1277541387557,91.8509
1277541447557,92.0666
1277541507557,91.9649
1277541567557,91.9357
1277541627557,92.0623
1277541687557,92.1333
1277541747557,91.8858
1277541807557,92.2066
1277541867557,91.9217
1277541927557,92.1820
1277541987557,92.0378
1277542047557,92.2066
1277542107557,92.0877
1277542167557,92.0035
1277542227557,92.1727
1277542287557,92.1519
1277542347557,91.9002
1277542407557,92.0301
1277542467557,92.0578
1277542527557,92.1678
1277542587557,92.1087
1277542647557,92.1394
1277542707557,92.2214
1277542767557,92.1263
1277542827565,91.8989
1277542887565,91.9752
1277542947565,91.8492
1277543007565,91.9840
1277543067565,91.9643
1277543127565,91.7946
1277543187565,91.8137
1277543247565,91.8628
1277543307565,91.8065
1277543367565,91.9144
1277543427565,91.8333
1277543487565,91.8070
1277543547565,91.9870
1277543607565,91.8810
1277543667565,91.8266
1277543727565,91.9291
1277543787565,91.7119
1277543847565,91.7722
1277543907565,92.0909
1277543967565,91.8077
1277544027565,91.7375
1277544087565,91.7664
1277544147565,91.8737
1277544207565,91.8694
1277544267565,91.9108
1277544327565,92.0092
1277544387565,91.9427
1277544447565,91.9648
1277544507565,91.9001
1277544567565,91.9105
1277544627565,91.9489
1277544687565,91.9597
1277544747565,91.9200
1277544807565,91.9341
1277544867565,91.8285
1277544927565,92.1055
1277544987565,92.0109
1277545047565,92.1310
1277545107565,92.1199
1277545167565,92.3120
1277545227565,91.9198
1277545287565,91.8803
1277545347565,92.1016
1277545407565,92.0332
1277545467565,92.2153
1277545527565,92.2296
1277545587565,91.9966
1277545647565,92.2133
1277545707565,92.0822
1277545767565,92.2966
1277545827565,92.0529
1277545887565,92.1178
1277545947565,92.4430
1277546007565,92.2216
1277546067565,92.0059
1277546127565,92.2160
1277546187565,92.2649
1277546247565,92.1748
1277546307565,92.2745
1277546367565,92.2896
1277546427573,92.4377
1277546487573,92.3172
1277546547573,92.2817
1277546607573,92.5090
1277546667573,92.2298
1277546727573,92.3133
1277546787573,92.6388
1277546847573,92.3052
1277546907573,92.3107
1277546967573,92.3589
1277547027573,92.4925
1277547087573,92.4949
1277547147573,92.3943
1277547207573,92.2703
1277547267573,92.6567
1277547327573,92.4566
1277547387573,92.4829
1277547447573,92.7019
1277547507573,92.5319
1277547567573,92.4913
1277547627573,92.6839
1277547687573,92.5480
1277547747573,92.5942
1277547807573,92.4406
1277547867573,92.5902
1277547927573,92.6677
1277547987573,92.5995
1277548047573,92.5548
1277548107573,92.5021
1277548167573,92.7661
1277548227573,92.6722
1277548287573,92.7093
1277548347573,92.8161
1277548407573,92.8936
1277548467573,92.6671
1277548527573,92.7047
1277548587573,92.7293
1277548647573,92.7311
1277548707573,92.7433
1277548767573,92.5928
1277548827573,92.7133
1277548887573,92.5846
1277548947573,92.6691
1277549007573,92.8982
1277549067573,92.6199
1277549127573,92.6339
1277549187573,92.7411
1277549247573,92.7073
1277549307573,92.8518
1277549367573,92.8523
1277549427573,92.6126
1277549487573,92.8464
1277549547573,92.9658
1277549607573,92.6502
1277549667573,92.8962
1277549727573,92.8216
1277549787573,92.8997
1277549847573,92.7219
1277549907573,92.8317
1277549967573,92.8160
1277550027581,92.7194
1277550087581,92.7325
1277550147581,92.8111
1277550207581,92.7490
1277550267581,92.8609
1277550327581,92.7564
1277550387581,92.8522
1277550447581,92.7365
1277550507581,92.9573
1277550567581,92.8259
1277550627581,92.8034
1277550687581,92.8729
1277550747581,92.5691
1277550807581,92.8270
1277550867581,92.7955
1277550927581,92.6109
1277550987581,92.9273
1277551047581,92.9380
1277551107581,92.8655
1277551167581,92.8777
1277551227581,92.9621
1277551287581,92.9139
1277551347581,92.9319
1277551407581,92.8225
1277551467581,93.0105
1277551527581,92.7917
1277551587581,92.7145
1277551647581,92.8403
1277551707581,92.7435
1277551767581,92.7021
1277551827581,92.6916
1277551887581,92.9156
1277551947581,92.9892
1277552007581,92.9500
1277552067581,92.8603
1277552127581,92.9986
1277552187581,92.7572
1277552247581,92.8336
1277552307581,93.0880
1277552367581,92.8505
1277552427581,92.7529
1277552487581,92.9513
1277552547581,92.9409
1277552607581,92.8635
1277552667581,92.7070
1277552727581,92.8354
1277552787581,92.8893
1277552847581,92.8960
1277552907581,92.8633
1277552967581,93.0217
1277553027581,92.7080
1277553087581,92.8177
1277553147581,92.6838
1277553207581,92.8578
1277553267581,92.7990
1277553327581,92.7865
1277553387581,92.8827
1277553447581,93.1016
1277553507581,92.9621
1277553567581,92.8158
1277553627590,92.8982
1277553687590,92.9179
1277553747590,92.8908
1277553807590,92.9890
1277553867590,92.8494
1277553927590,93.0711
1277553987590,92.6104
1277554047590,92.8807
1277554107590,93.1932
1277554167590,93.0236
1277554227590,93.2039
1277554287590,93.0091
1277554347590,93.1106
1277554407590,92.8278
1277554467590,93.0799
1277554527590,92.9949
1277554587590,93.0555
1277554647590,93.1238
1277554707590,93.0085
1277554767590,93.3872
1277554827590,93.2769
1277554887590,93.2317
1277554947590,93.1126
1277555007590,93.2501
1277555067590,93.2885
1277555127590,93.3560
1277555187590,93.3476
1277555247590,93.2652
1277555307590,93.2331
1277555367590,93.2789
1277555427590,93.1299
1277555487590,93.1660
1277555547590,93.2414
1277555607590,93.5514
1277555667590,93.2465
1277555727590,93.2928
1277555787590,93.1190
1277555847590,93.1561
1277555907590,93.2161
1277555967590,93.1883
1277556027590,93.4340
1277556087590,93.3371
1277556147590,93.2447
1277556207590,93.3301
1277556267590,93.1709
1277556327590,93.3378
1277556387590,93.3043
1277556447590,93.1958
1277556507590,93.2930
1277556567590,93.3397
1277556627590,93.3451
1277556687590,93.3353
1277556747590,93.4345
1277556807590,93.3753
1277556867590,93.3260
1277556927590,93.2777
1277556987590,93.3891
1277557047590,93.2654
1277557107590,93.1860
1277557167590,93.3689
1277557227598,93.1702
1277557287598,93.3072
1277557347598,93.2471
1277557407598,93.1974
1277557467598,93.1677
1277557527598,93.2991
1277557587598,93.2028
1277557647598,93.2306
1277557707598,93.1926
1277557767598,93.2658
1277557827598,93.4211
1277557887598,93.3724
1277557947598,93.2539
1277558007598,93.2628
1277558067598,93.2341
1277558127598,93.2252
1277558187598,93.1544
1277558247598,93.3362
1277558307598,93.3412
1277558367598,93.3144
1277558427598,93.1141
1277558487598,93.1891
1277558547598,93.1408
1277558607598,93.4238
1277558667598,93.1148
1277558727598,93.0746
1277558787598,93.4449
1277558847598,93.2221
1277558907598,93.1572
1277558967598,93.2643
1277559027598,93.3678
1277559087598,93.1325
1277559147598,93.3941
1277559207598,93.3860
1277559267598,93.2692
1277559327598,93.2232
1277559387598,93.3578
1277559447598,93.0514
1277559507598,93.1121
1277559567598,93.2701
1277559627598,93.1432
1277559687598,93.2372
1277559747598,93.3379
1277559807598,93.3137
1277559867598,93.1136
1277559927598,93.2226
1277559987598,93.2736
1277560047598,93.4246
1277560107598,93.3043
1277560167598,93.3220
1277560227598,93.1178
1277560287598,93.0079
1277560347598,93.3050
1277560407598,93.0861
1277560467598,93.2733
1277560527598,93.2003
1277560587598,93.2852
1277560647598,93.4762
1277560707598,93.1912
1277560767598,93.2414
1277560827606,93.2823
1277560887606,93.3843
1277560947606,93.5165
1277561007606,93.1505
1277561067606,93.3770
1277561127606,93.1598
1277561187606,93.2694
1277561247606,93.1699
1277561307606,93.2444
1277561367606,93.2155
1277561427606,92.9894
1277561487606,93.1660
1277561547606,93.2672
1277561607606,93.0808
1277561667606,93.1547
1277561727606,93.3814
1277561787606,93.1346
1277561847606,93.1176
1277561907606,93.1149
1277561967606,93.1367
1277562027606,93.0872
1277562087606,93.2008
1277562147606,93.1659
1277562207606,93.1005
1277562267606,93.2157
1277562327606,93.0829
1277562387606,93.2906
1277562447606,93.3807
1277562507606,93.1514
1277562567606,93.3690
1277562627606,93.2079
1277562687606,93.1184
1277562747606,93.3078
1277562807606,93.0375
1277562867606,92.9996
1277562927606,93.1590
1277562987606,93.1277
1277563047606,93.0542
1277563107606,93.1527
1277563167606,93.1236
1277563227606,93.2511
1277563287606,93.1999
1277563347606,93.1267
1277563407606,93.0510
1277563467606,93.0687
1277563527606,93.1100
1277563587606,92.9558
1277563647606,92.9509
1277563707606,93.0614
1277563767606,92.8005
1277563827606,93.0679
1277563887606,93.0924
1277563947606,92.9928
1277564007606,93.0492
1277564067606,92.8939
1277564127606,92.7877
1277564187606,93.1044
1277564247606,92.9309
1277564307606,92.7344
1277564367606,92.9207
1277564427615,92.9778
1277564487615,93.0240
1277564547615,92.9016
1277564607615,93.0623
1277564667615,92.7656
1277564727615,92.9531
1277564787615,93.1277
1277564847615,93.0099
1277564907615,92.9196
1277564967615,93.1456
1277565027615,93.0537
1277565087615,92.8500
1277565147615,92.9561
1277565207615,92.9524
1277565267615,92.9662
1277565327615,92.9075
1277565387615,92.9905
1277565447615,93.0221
1277565507615,93.0123
1277565567615,92.9871
1277565627615,93.0492
1277565687615,93.1300
1277565747615,92.9840
1277565807615,93.0656
1277565867615,92.9463
1277565927615,93.0882
1277565987615,93.1329
1277566047615,92.9576
1277566107615,92.9803
1277566167615,93.0579
1277566227615,93.0092
1277566287615,93.0668
1277566347615,93.2497
1277566407615,92.9685
1277566467615,92.9843
1277566527615,93.0817
1277566587615,92.9447
1277566647615,93.2276
1277566707615,92.9369
1277566767615,92.9422
1277566827615,93.0312
1277566887615,93.1740
1277566947615,93.0092
1277567007615,93.0421
1277567067615,93.2289
1277567127615,93.1453
1277567187615,93.3240
1277567247615,93.1206
1277567307615,92.9250
1277567367615,93.0550
1277567427615,93.0011
1277567487615,93.1124
1277567547615,93.1270
1277567607615,93.0373
1277567667615,93.1215
1277567727615,92.9354
1277567787615,93.1318
1277567847615,93.0319
1277567907615,92.9536
1277567967615,93.1398
1277568027624,92.8729
1277568087624,93.0785
1277568147624,92.9432
1277568207624,93.0998
1277568267624,93.1156
1277568327624,93.1782
1277568387624,93.1807
1277568447624,93.0421
1277568507624,92.9287
1277568567624,92.9647
1277568627624,93.1918
1277568687624,93.2570
1277568747624,93.2365
1277568807624,92.9207
1277568867624,93.2207
1277568927624,93.2204
1277568987624,93.2668
1277569047624,92.9984
1277569107624,93.1086
1277569167624,93.0443
1277569227624,92.7837
1277569287624,93.1291
1277569347624,92.9328
1277569407624,93.2515
1277569467624,92.9148
1277569527624,93.3193
1277569587624,93.3136
1277569647624,93.1421
1277569707624,93.1053
1277569767624,93.0366
1277569827624,93.1333
1277569887624,93.1484
1277569947624,93.0416
1277570007624,93.0454
1277570067624,93.1967
1277570127624,93.2393
1277570187624,93.1695
1277570247624,93.1190
1277570307624,92.9984
1277570367624,93.1227
1277570427624,93.1132
1277570487624,93.0789
1277570547624,93.1685
1277570607624,93.0581
1277570667624,93.2265
1277570727624,93.1120
1277570787624,93.1873
1277570847624,93.2779
1277570907624,93.0456
1277570967624,92.8678
1277571027624,93.0322
1277571087624,93.0909
1277571147624,93.1450
1277571207624,93.0583
1277571267624,92.9418
1277571327624,93.0196
1277571387624,92.9621
1277571447624,92.8881
1277571507624,92.9440
1277571567624,93.1552
1277571627633,92.9902
1277571687633,93.0698
1277571747633,93.1363
1277571807633,92.9552
1277571867633,92.7931
1277571927633,93.1206
1277571987633,92.9971
1277572047633,92.8859
1277572107633,92.8984
1277572167633,93.2237
1277572227633,92.8804
1277572287633,93.0756
1277572347633,93.2479
1277572407633,92.9094
1277572467633,92.8219
1277572527633,92.7360
1277572587633,92.9217
1277572647633,92.9354
1277572707633,92.8908
1277572767633,92.8056
1277572827633,93.0689
1277572887633,93.0465
1277572947633,93.1558
1277573007633,92.8469
1277573067633,93.2090
1277573127633,93.0995
1277573187633,92.8410
1277573247633,93.1185
1277573307633,92.8532
1277573367633,93.1123
1277573427633,93.1432
1277573487633,93.1355
1277573547633,93.2056
1277573607633,93.1755
1277573667633,93.0205
1277573727633,92.8618
1277573787633,93.1914
1277573847633,92.9544
1277573907633,93.1863
1277573967633,93.0258
1277574027633,92.9894
1277574087633,93.0750
1277574147633,93.1653
1277574207633,92.9788
1277574267633,93.3443
1277574327633,93.0407
1277574387633,93.1927
1277574447633,93.3126
1277574507633,93.1556
1277574567633,93.2432
1277574627633,93.1638
1277574687633,93.2510
1277574747633,93.0559
1277574807633,92.8874
1277574867633,93.0709
1277574927633,93.3131
1277574987633,93.2088
1277575047633,93.3117
1277575107633,93.0385
1277575167633,93.2440
1277575227642,93.3042
1277575287642,93.2946
1277575347642,93.0588
1277575407642,93.3500
1277575467642,93.3781
1277575527642,93.2595
1277575587642,93.0784
1277575647642,93.2948
1277575707642,93.2118
1277575767642,93.1770